Temperature
30 31 31 31 31 31 31 31 30 30 29 27 26 26 26 26 26 25 24 23 22 21 21 20 19 19 18 18 17 17 17 17 16 16 16 16 16 16 16 16 16 16 16 16
29 31 31 31 31 31 31 31 31 30 28 27 25 25 26 26 26 25 24 23 22 21 20 19 19 18 18 17 17 17 16 16 16 16 16 16 16 16 16 16 16 16 15 15
28 30 30 29 31 31 31 32 31 29 28 26 25 25 25 26 25 24 24 23 22 21 20 19 18 18 17 17 17 17 16 16 16 16 16 16 15 15 15 15 15 15 15 15
27 28 27 29 32 32 31 31 31 29 28 26 25 24 24 25 25 24 23 22 21 20 19 18 18 18 17 17 17 16 16 16 16 16 15 15 15 15 15 15 15 14 14 14
27 27 27 29 30 31 30 30 30 29 27 26 24 24 24 23 23 22 22 21 20 20 19 18 18 17 17 17 16 16 16 16 15 15 15 15 15 15 14 14 14 14 13 13
26 26 26 28 30 30 30 28 29 28 27 26 25 25 23 22 21 21 20 19 19 19 18 18 17 17 17 16 16 16 16 15 15 15 15 15 14 14 14 14 13 13 13 13
25 25 27 28 28 28 26 26 26 26 26 25 24 23 21 20 20 19 19 19 18 18 17 17 16 16 16 16 16 15 15 15 15 15 14 14 14 14 13 13 13 13 12 12
25 25 25 27 27 26 24 24 25 24 23 22 21 20 19 19 18 18 18 18 17 17 16 16 16 16 15 15 15 15 15 15 14 14 14 14 13 13 13 13 12 12 11 11
25 25 24 24 24 24 24 23 23 23 22 21 20 19 19 18 18 17 17 16 16 16 15 15 15 15 15 15 15 14 14 14 14 14 13 13 13 13 12 12 12 11 11 10
23 23 24 23 23 23 22 22 22 21 21 20 20 19 18 17 16 16 16 15 15 15 15 15 14 15 14 14 14 14 14 13 13 13 12 12 12 12 11 11 11 10 10 10
23 22 22 22 22 21 21 21 21 21 20 19 19 18 17 16 15 15 15 15 14 14 14 14 14 14 14 13 13 13 13 13 12 12 12 11 11 11 11 10 10 10 10 9
21 22 22 21 20 20 20 20 20 19 19 18 17 16 16 15 14 14 14 14 13 13 13 13 13 13 13 13 13 13 12 12 12 11 11 11 10 10 9 9 9 9 9 9
20 20 20 20 20 20 19 19 19 18 17 17 16 15 14 14 13 13 13 13 13 12 12 12 12 12 12 12 12 12 12 12 11 11 10 10 10 10 9 8 8 8 8 8
20 19 19 19 19 18 18 17 17 17 16 15 15 14 13 13 12 12 12 12 12 12 12 12 11 11 11 11 11 11 11 11 10 10 10 9 9 9 8 8 7 7 7 7
19 19 19 18 17 17 17 16 16 15 14 14 14 13 12 12 12 11 11 11 11 11 11 11 11 10 10 10 10 10 10 10 10 9 9 9 8 8 7 7 7 6 6 6
19 18 18 17 17 16 16 15 15 14 13 13 12 12 12 11 11 11 11 11 11 10 10 10 10 10 10 10 10 10 9 9 9 9 9 8 8 8 7 7 6 6 6 6
18 17 17 17 16 15 15 15 14 13 13 12 12 11 11 11 11 10 10 10 10 10 10 10 9 9 9 9 9 9 9 9 9 9 8 8 8 7 7 7 6 6 6 6
17 16 16 16 15 15 14 14 13 13 12 12 11 11 11 10 10 10 10 10 10 9 9 9 9 9 9 9 9 9 9 9 8 8 8 8 8 8 7 7 7 6 6 6
16 16 15 15 14 14 13 13 12 12 11 11 11 10 10 10 10 10 9 9 9 9 9 9 9 9 9 9 9 9 9 9 8 8 8 8 8 8 7 7 7 7 7 6
15 15 14 14 13 13 12 12 12 11 11 11 10 10 10 10 10 9 9 9 9 9 9 9 9 9 9 9 9 9 9 9 9 8 8 8 8 8 8 8 7 7 7 7
14 14 13 13 12 12 12 11 11 11 10 10 10 10 10 9 9 9 9 9 9 9 9 9 9 9 9 9 9 9 9 9 9 9 9 8 8 8 8 8 8 7 7 7
13 13 12 12 11 11 11 11 10 10 10 10 10 10 9 9 9 9 9 9 8 9 9 9 9 9 9 9 9 9 9 9 9 9 9 9 9 8 8 8 8 8 7 7
12 12 11 11 11 10 10 10 10 10 10 10 10 9 9 9 9 9 9 8 9 9 9 9 9 9 9 9 9 10 9 9 9 9 9 9 9 8 8 8 8 8 7 7
11 11 11 10 10 10 10 9 9 9 9 9 9 9 9 9 9 9 9 8 8 8 8 9 9 9 9 9 9 9 9 9 9 9 9 9 9 9 8 8 8 8 7 7
10 10 10 10 10 9 9 9 9 9 9 9 9 9 9 9 9 9 8 8 8 8 8 8 8 9 9 9 9 9 9 9 9 9 9 9 9 9 8 8 8 8 8 7
10 10 10 10 10 10 9 9 9 9 10 10 9 9 9 9 9 9 8 8 8 8 8 8 8 9 9 9 9 9 9 9 9 9 9 9 9 9 8 8 8 8 8 7
10 10 9 9 10 10 10 10 10 10 10 10 10 10 9 9 9 9 9 8 8 8 8 8 9 9 9 9 9 9 9 9 9 9 9 9 9 9 8 8 8 8 8 7
Wind_Speed
18 16 13 13 15 16 16 15 13 7 3 5 8 9 7 7 8 10 10 9 8 7 7 6 6 6 5 5 5 5 5 5 4 5 5 5 5 6 6 6 5 5 5 4
18 19 17 15 14 16 16 15 14 9 3 7 7 6 8 8 9 9 8 8 8 8 8 6 6 5 5 6 6 5 5 5 5 5 5 6 6 6 7 6 6 6 5 5
16 17 17 17 14 14 13 13 11 8 5 11 11 8 5 6 8 9 8 8 8 8 7 6 6 5 6 6 6 6 6 5 6 6 6 6 7 7 7 7 7 6 6 7
15 16 18 12 12 13 12 10 7 5 11 12 11 9 6 5 8 9 8 8 8 8 8 7 6 6 6 6 6 7 6 6 6 7 7 7 7 7 7 7 7 7 8 9
13 16 16 13 10 9 8 7 4 7 12 13 13 11 8 7 9 9 9 9 8 7 8 7 6 6 6 6 6 6 6 6 6 7 8 8 8 7 7 8 8 8 8 9
13 14 14 8 6 6 7 7 2 7 11 12 11 7 7 9 10 9 9 8 7 7 8 7 6 5 5 5 6 5 6 6 6 7 7 8 8 8 8 8 9 10 10 10
17 16 12 5 1 1 6 2 5 7 9 11 7 7 10 10 10 9 8 7 7 7 6 6 5 5 5 5 4 5 6 7 7 7 7 8 8 8 9 10 11 12 12 11
16 17 10 2 4 3 4 5 7 11 12 14 14 14 12 10 9 8 7 7 7 7 6 5 5 5 5 5 5 5 7 7 7 8 7 8 9 9 10 11 12 12 12 11
8 5 5 7 8 7 7 6 8 11 12 13 13 12 10 9 8 7 7 6 5 6 6 6 5 5 5 5 6 7 7 8 8 9 8 8 9 10 9 9 9 10 10 10
4 6 7 8 9 8 8 8 9 10 10 11 11 11 10 9 8 7 5 5 5 5 6 6 5 5 5 5 7 8 8 8 9 10 10 9 8 7 7 7 8 9 10 10
5 8 8 8 8 7 7 8 9 9 9 9 10 10 9 8 7 6 5 5 5 5 6 6 6 5 6 6 7 9 9 9 10 10 10 11 11 9 8 7 7 9 9 9
2 3 5 8 9 8 7 7 8 9 9 9 9 9 9 8 7 7 6 6 6 7 7 6 6 7 6 6 7 9 9 9 9 9 9 11 12 13 19 15 17 16 13 12
5 5 7 9 9 8 8 8 8 8 9 9 9 8 9 8 8 8 8 7 8 8 8 8 8 7 7 6 8 9 10 10 9 9 10 10 10 12 12 14 18 17 16 16
6 5 6 7 7 7 9 9 9 10 10 9 9 9 9 9 9 9 8 8 8 9 8 8 8 8 8 8 9 10 11 11 10 9 9 10 10 10 11 12 11 9 11 13
4 4 5 8 8 7 7 8 8 9 10 10 10 10 10 10 10 9 8 9 9 9 9 9 9 9 8 9 10 10 10 9 9 9 10 10 10 10 10 11 11 10 9 7
4 4 5 7 8 9 8 8 7 8 9 10 10 10 10 11 10 9 8 8 9 9 9 9 10 9 8 10 10 9 9 13 10 9 10 10 9 10 10 10 10 10 9 9
5 5 5 5 6 8 8 8 9 9 10 10 11 11 12 11 10 9 8 8 9 9 9 10 10 9 9 9 9 8 9 10 11 9 9 9 9 9 9 10 9 9 9 8
5 5 5 5 6 8 9 9 9 10 11 11 12 11 11 11 11 10 10 10 10 10 9 9 9 9 9 9 8 8 8 9 8 9 9 8 9 9 9 9 10 10 9 8
6 6 7 7 7 8 9 10 10 10 11 12 12 12 11 11 11 10 10 10 10 10 9 9 10 9 9 9 9 7 9 9 8 9 8 9 8 8 8 8 9 9 9 8
7 8 9 9 9 10 11 11 12 11 11 12 13 12 12 11 11 10 10 8 7 7 9 9 8 8 8 8 7 7 8 9 10 9 9 8 8 8 8 9 9 8 8 7
9 10 11 11 11 12 12 13 13 13 12 12 12 12 12 11 10 10 9 9 8 8 8 8 6 6 6 6 5 6 7 8 8 8 8 7 7 7 7 7 8 7 7 7
10 11 12 13 13 12 11 11 12 13 12 11 12 12 12 11 10 9 8 7 8 7 6 6 6 7 5 4 5 6 7 8 7 7 6 6 6 6 7 7 6 6 6 5
10 11 12 13 14 13 12 11 12 11 11 11 11 11 10 9 8 9 8 7 8 7 5 6 7 7 3 3 4 6 7 7 6 6 6 6 6 6 6 7 6 5 5 5
11 12 12 13 13 13 12 11 11 10 10 10 10 10 9 8 7 7 8 9 8 7 5 7 8 6 2 2 2 5 6 6 6 6 6 6 6 6 6 6 6 5 5 6
13 13 13 13 11 10 10 11 11 10 10 8 10 9 7 7 8 8 9 10 10 8 7 7 5 3 3 3 3 4 4 4 4 4 5 5 5 5 5 5 5 5 5 5
11 10 9 9 9 8 9 8 8 8 8 8 8 7 7 8 9 9 8 9 10 8 7 6 6 5 5 4 4 4 5 5 5 5 4 4 5 5 5 5 6 5 5 5
11 9 8 8 8 8 8 8 8 7 7 7 7 7 7 8 8 8 9 8 8 8 7 7 7 6 6 5 5 5 5 5 6 6 5 5 4 4 4 5 4 4 4 5
Wind_Direction
256 265 255 237 231 232 233 242 252 256 198 152 148 142 153 156 144 130 129 129 127 128 121 123 122 122 122 118 117 123 128 133 137 129 128 128 125 124 122 119 123 120 116 113
248 257 258 249 234 232 234 234 243 243 192 121 112 127 154 156 143 136 134 133 131 131 127 127 126 130 125 122 120 120 125 127 126 124 122 121 118 113 112 112 111 110 109 109
253 250 253 248 245 245 242 243 244 240 169 140 141 139 158 153 143 138 134 133 129 126 126 128 129 129 130 127 127 125 123 123 124 125 123 118 117 112 108 107 105 100 102 101
249 256 252 254 254 248 243 242 238 155 130 129 128 125 121 126 128 125 122 118 116 119 117 119 124 125 132 134 131 131 131 130 128 126 122 118 115 114 112 108 107 104 98 95
241 245 247 249 249 247 243 235 195 140 126 131 131 126 107 96 99 101 104 104 107 114 120 121 121 122 129 133 134 136 135 131 132 131 127 125 123 120 117 113 107 103 98 96
241 247 247 251 265 271 243 217 176 136 140 147 150 159 128 109 101 96 93 99 104 103 105 108 106 113 127 134 135 137 134 133 131 129 127 128 126 122 117 112 109 102 94 90
236 245 251 257 131 266 236 198 88 106 128 136 121 101 115 111 102 98 96 99 102 102 102 102 106 108 112 110 110 111 117 120 122 123 124 124 121 119 116 112 107 101 96 90
230 238 241 358 159 169 97 56 84 93 96 101 103 108 112 111 109 105 99 95 96 99 98 97 104 113 113 108 103 103 106 110 113 116 118 119 119 118 117 118 114 109 104 96
221 218 91 72 86 90 98 88 79 92 102 112 116 118 117 113 107 103 96 92 93 100 100 92 91 104 113 112 112 109 108 108 107 106 103 108 117 121 120 117 117 116 111 106
149 129 111 96 90 87 85 92 93 98 103 113 118 121 119 113 104 97 90 93 99 102 97 93 91 93 100 104 108 114 114 111 111 109 102 94 93 98 105 112 117 118 117 115
158 139 122 108 101 99 94 103 104 105 106 111 115 118 115 110 106 104 99 86 88 93 96 91 91 93 100 108 113 113 113 112 109 104 102 92 81 70 82 77 104 118 119 121
160 128 129 128 122 127 124 112 108 108 108 109 114 117 116 111 105 102 96 90 90 91 96 93 91 95 101 109 122 126 122 116 112 112 108 105 100 84 63 72 76 82 92 105
103 88 107 114 115 116 112 110 112 112 112 110 107 111 113 110 106 102 99 96 95 93 92 94 95 94 96 104 109 114 116 114 113 114 116 115 114 112 103 79 71 76 86 96
109 106 113 114 108 103 105 100 101 106 105 107 110 110 112 110 106 102 103 104 104 100 97 94 94 93 95 103 105 107 109 112 115 115 116 117 119 118 118 118 110 95 87 97
135 142 137 125 120 116 115 112 113 114 113 109 108 109 115 115 110 108 108 109 106 103 101 101 101 101 102 105 107 109 112 116 115 116 117 118 121 120 119 118 118 119 120 112
134 130 134 137 140 140 137 132 131 129 123 118 113 112 114 114 111 109 110 113 113 110 108 108 108 111 112 112 112 109 108 115 119 122 121 122 123 124 124 124 125 129 133 137
156 164 167 160 153 152 146 142 142 138 129 126 125 123 121 119 116 113 110 106 105 107 110 114 115 117 118 119 118 119 121 124 126 123 124 126 126 128 130 132 133 135 137 147
172 175 173 171 166 150 143 138 137 135 131 131 129 127 126 124 123 120 116 112 107 103 106 115 121 125 125 124 120 122 125 131 133 127 127 131 136 138 137 136 140 140 142 154
163 165 163 156 150 144 137 131 131 130 130 132 131 129 126 123 123 123 123 122 120 118 119 121 125 125 124 125 128 131 135 136 132 129 133 135 139 138 138 141 144 145 150 159
161 156 146 142 138 135 131 128 130 131 129 128 128 127 126 126 126 126 124 117 115 120 127 129 134 130 132 140 145 142 139 138 135 136 141 148 147 146 149 151 151 152 155 162
149 141 136 130 124 125 128 132 133 132 131 132 132 130 129 129 131 131 127 120 114 118 127 133 140 137 136 137 149 141 138 136 137 142 147 151 152 151 151 150 152 156 161 165
136 134 132 128 126 125 126 129 131 132 132 133 133 133 134 135 132 124 114 119 131 134 143 144 132 116 112 147 156 148 143 140 141 144 149 151 149 147 147 150 154 159 161 162
127 126 126 127 126 124 124 128 132 136 137 138 139 141 139 136 136 135 131 134 140 139 138 127 118 110 100 164 156 144 139 140 145 151 154 155 155 155 157 162 166 169 167 169
120 118 121 122 124 127 130 134 134 133 135 137 139 138 137 136 131 124 121 121 116 123 121 117 115 112 140 183 166 143 142 150 159 166 169 170 168 166 166 170 172 172 173 180
118 120 122 127 130 132 133 134 133 136 139 135 136 141 140 130 128 126 126 130 133 134 133 137 141 157 193 194 175 153 150 157 171 180 179 170 172 173 172 178 181 182 184 187
115 117 119 122 122 126 133 136 137 141 139 137 139 139 132 128 129 129 135 145 148 150 150 158 173 196 202 197 182 177 174 169 177 192 190 183 188 187 185 188 188 193 192 191
110 109 111 112 115 120 125 127 130 132 133 135 134 135 137 138 141 147 152 156 160 167 170 180 188 197 201 201 200 196 193 191 194 199 195 195 200 199 193 192 198 196 196 199
Height
1433 1428 1428 1430 1432 1432 1436 1439 1446 1447 1450 1453 1454 1457 1462 1464 1466 1469 1473 1476 1479 1483 1485 1488 1490 1492 1493 1494 1495 1496 1497 1498 1500 1501 1503 1505 1506 1508 1510 1512 1514 1516 1518 1520
1437 1429 1426 1428 1427 1428 1430 1431 1435 1439 1448 1450 1455 1458 1462 1465 1467 1470 1473 1477 1480 1483 1486 1488 1490 1491 1493 1494 1495 1496 1497 1498 1500 1501 1503 1504 1506 1507 1509 1511 1513 1515 1517 1519
1443 1431 1430 1437 1427 1426 1426 1425 1429 1439 1444 1448 1454 1459 1464 1465 1467 1470 1473 1477 1480 1483 1486 1488 1490 1491 1493 1494 1495 1496 1497 1499 1500 1501 1503 1504 1506 1508 1509 1511 1513 1515 1517 1519
1443 1442 1454 1432 1417 1418 1422 1425 1426 1433 1439 1446 1453 1460 1463 1464 1467 1471 1474 1477 1480 1483 1485 1487 1489 1491 1492 1494 1495 1496 1497 1499 1500 1502 1502 1504 1506 1508 1509 1511 1513 1515 1516 1519
1443 1446 1441 1428 1420 1420 1426 1430 1428 1433 1441 1448 1454 1460 1465 1467 1469 1472 1475 1478 1480 1483 1485 1487 1489 1490 1492 1494 1495 1496 1498 1499 1501 1502 1503 1504 1506 1508 1510 1511 1513 1515 1517 1519
1442 1449 1449 1432 1420 1420 1425 1437 1432 1434 1441 1447 1452 1458 1466 1469 1471 1474 1477 1479 1481 1483 1485 1486 1488 1490 1492 1494 1495 1496 1497 1499 1501 1502 1503 1505 1506 1508 1510 1512 1514 1515 1517 1520
1442 1444 1436 1423 1422 1426 1443 1443 1436 1437 1442 1447 1452 1458 1466 1469 1472 1475 1477 1480 1482 1483 1485 1486 1488 1490 1491 1493 1495 1496 1497 1499 1500 1502 1503 1505 1506 1508 1510 1512 1514 1516 1517 1520
1438 1444 1444 1427 1427 1434 1441 1440 1439 1442 1447 1451 1456 1462 1467 1470 1473 1476 1478 1480 1482 1483 1484 1486 1488 1489 1490 1492 1494 1495 1496 1498 1500 1501 1503 1504 1506 1508 1510 1512 1514 1516 1518 1520
1430 1436 1435 1433 1435 1438 1440 1442 1444 1447 1452 1455 1460 1464 1468 1471 1474 1476 1479 1480 1482 1483 1484 1486 1487 1488 1489 1491 1493 1494 1496 1497 1499 1500 1502 1504 1506 1508 1510 1512 1514 1516 1518 1520
1429 1433 1434 1436 1439 1442 1444 1446 1449 1451 1455 1458 1462 1465 1469 1472 1474 1477 1478 1480 1481 1483 1484 1485 1486 1487 1488 1490 1491 1493 1494 1496 1498 1500 1502 1504 1506 1508 1510 1512 1515 1517 1519 1521
1428 1433 1436 1439 1442 1445 1448 1450 1452 1454 1458 1461 1463 1467 1469 1472 1475 1477 1478 1480 1481 1482 1483 1484 1485 1486 1487 1489 1490 1492 1494 1496 1498 1500 1502 1504 1506 1509 1511 1514 1516 1518 1520 1522
1434 1434 1436 1441 1444 1447 1450 1452 1455 1457 1460 1463 1465 1468 1470 1473 1475 1477 1478 1479 1481 1481 1482 1484 1485 1486 1487 1488 1490 1492 1494 1496 1498 1500 1502 1504 1507 1510 1513 1516 1518 1521 1523 1525
1434 1437 1439 1442 1446 1449 1452 1454 1457 1459 1462 1465 1467 1469 1471 1473 1475 1477 1478 1479 1480 1481 1482 1484 1485 1486 1487 1488 1490 1492 1494 1496 1498 1501 1503 1506 1508 1510 1513 1517 1521 1523 1526 1528
1437 1440 1442 1444 1447 1450 1452 1455 1458 1460 1463 1466 1468 1469 1472 1474 1475 1477 1478 1480 1481 1482 1483 1484 1486 1487 1488 1489 1491 1493 1495 1497 1499 1502 1505 1508 1511 1513 1515 1518 1522 1525 1529 1531
1439 1441 1444 1446 1449 1452 1454 1456 1459 1461 1464 1466 1468 1470 1473 1475 1476 1478 1480 1481 1482 1484 1485 1486 1487 1488 1490 1491 1493 1494 1496 1499 1502 1505 1507 1510 1513 1516 1519 1522 1524 1527 1530 1534
1440 1442 1444 1448 1450 1453 1454 1457 1460 1463 1465 1467 1469 1471 1474 1476 1478 1480 1482 1483 1484 1485 1486 1488 1489 1490 1492 1494 1495 1497 1499 1502 1505 1508 1511 1514 1517 1519 1522 1525 1528 1531 1533 1536
1439 1443 1446 1448 1450 1453 1455 1458 1460 1463 1465 1468 1470 1472 1475 1477 1479 1481 1484 1486 1487 1488 1489 1490 1492 1493 1495 1497 1499 1501 1503 1506 1509 1512 1515 1517 1520 1523 1525 1528 1531 1534 1537 1539
1440 1442 1445 1448 1450 1453 1455 1458 1461 1463 1466 1468 1471 1473 1476 1478 1480 1483 1485 1487 1489 1491 1492 1494 1495 1497 1499 1501 1503 1505 1507 1509 1512 1515 1517 1520 1523 1526 1529 1531 1534 1537 1539 1542
1439 1442 1445 1448 1451 1453 1456 1458 1461 1464 1467 1469 1472 1475 1478 1480 1482 1485 1487 1489 1491 1493 1495 1497 1499 1501 1503 1504 1507 1509 1511 1513 1515 1518 1521 1523 1526 1529 1531 1534 1536 1539 1541 1543
1439 1442 1445 1448 1451 1453 1456 1459 1461 1465 1468 1471 1474 1477 1480 1482 1485 1487 1490 1492 1494 1496 1498 1500 1502 1504 1506 1508 1510 1512 1514 1516 1518 1521 1523 1526 1528 1531 1533 1536 1538 1540 1542 1544
1440 1442 1445 1448 1451 1454 1457 1460 1463 1467 1470 1473 1476 1478 1481 1484 1487 1490 1492 1494 1497 1499 1501 1503 1505 1507 1509 1511 1512 1515 1517 1519 1521 1523 1526 1528 1530 1532 1535 1537 1539 1541 1543 1545
1440 1443 1446 1449 1452 1456 1459 1462 1465 1468 1471 1475 1478 1481 1484 1487 1490 1492 1494 1496 1498 1501 1503 1505 1507 1509 1511 1513 1515 1517 1519 1521 1523 1525 1527 1529 1532 1534 1536 1538 1540 1542 1543 1545
1442 1445 1448 1451 1454 1457 1461 1465 1468 1471 1474 1477 1480 1483 1486 1489 1491 1494 1496 1499 1501 1503 1505 1507 1509 1511 1513 1515 1517 1519 1521 1523 1525 1527 1529 1531 1533 1534 1536 1538 1540 1541 1543 1544
1445 1447 1451 1454 1457 1461 1464 1468 1471 1474 1477 1480 1483 1486 1488 1491 1494 1497 1498 1500 1502 1505 1507 1509 1511 1513 1515 1517 1519 1521 1523 1524 1526 1528 1530 1531 1533 1535 1536 1538 1539 1541 1542 1543
1448 1451 1454 1457 1461 1464 1467 1471 1474 1477 1480 1483 1486 1488 1491 1494 1496 1498 1500 1502 1504 1507 1509 1511 1513 1515 1517 1519 1520 1522 1524 1525 1527 1528 1530 1531 1533 1534 1536 1537 1538 1540 1541 1542
1452 1455 1458 1461 1464 1467 1470 1473 1476 1480 1483 1486 1489 1491 1494 1496 1498 1500 1502 1504 1507 1509 1511 1512 1514 1516 1518 1519 1521 1523 1524 1525 1526 1528 1529 1531 1532 1533 1535 1536 1537 1538 1539 1540
1457 1459 1462 1465 1468 1471 1474 1477 1480 1483 1485 1488 1491 1493 1496 1498 1500 1502 1504 1506 1508 1510 1512 1513 1515 1516 1518 1520 1521 1523 1524 1525 1526 1527 1528 1529 1531 1532 1533 1534 1535 1536 1537 1537